Flag for Canada Weather past 2 weeks in Stonewall, Manitoba, Canada

Now
72 °F

Broken clouds.


Feels Like: 69 °F
Forecast: 58 / 85 °F
Wind: 8 mph from South

Location: Winnipeg Int. Airportman.

Current Time: Aug 29, 2015 at 10:20:20 AM

Latest Report: Aug 29, 2015 at 10:00 AM


Visibility: 8 mi

Pressure: 29.90 "Hg

Humidity: 88%

Dew point: 68 °F

Location of StonewallLocation

Historic Weather in Stonewall — Graph

°F

Stonewall temperature yesterday

Maximum temperature yesterday: 82 °F (at 4:00 PM)
Minimum temperature yesterday: 64 °F (at 7:00 AM)
Average temperature yesterday: 72 °F

Past Weeks' High & Low Weather Summary

 TemperatureHumidityPressure
High93 °F (Aug 14, 4:00 PM)100% (Aug 17, 5:00 AM)30.22 "Hg (Aug 17, 5:00 AM)
Low37 °F (Aug 25, 6:00 AM)32% (Aug 20, 4:00 PM)29.38 "Hg (Aug 22, 9:00 PM)
Average64 °F72%29.88 "Hg
* Reported Aug 14 9:00 AM — Aug 29 9:00 AM, Stonewall, Weather by CustomWeather, © 2015

Note: Actual official high and low records may vary slightly from our data, if they occured in-between our weather recording intervals... More about our weather records

Advertising

Stonewall weather history for previous 24 hours

 ConditionsComfort  
Time TempWeatherWind HumidityBarometerVisibility
9:00 AM
Sat, Aug 29
68 °FPassing clouds.10 mph94%29.90 "Hg8 mi
8:00 AM63 °FPassing clouds.2 mph100%29.91 "Hg10 mi
7:00 AM61 °FFog.3 mph100%29.90 "Hg3 mi
6:00 AM63 °FFog.6 mph100%29.89 "Hg10 mi
5:00 AM61 °FFog.6 mph100%29.89 "Hg10 mi
4:00 AM61 °FFog.5 mph100%29.88 "Hg15 mi
3:00 AM61 °FFog.3 mph94%29.88 "Hg15 mi
2:00 AM61 °FFog.No wind100%29.88 "Hg15 mi
1:00 AM61 °FFog.No wind100%29.88 "Hg15 mi
12:00 AM64 °FClear.2 mph94%29.87 "Hg15 mi
11:00 PM
Fri, Aug 28
68 °FClear.2 mph83%29.87 "Hg15 mi
10:00 PM68 °FClear.5 mph83%29.86 "Hg15 mi
9:00 PM72 °FScattered clouds.3 mph78%29.85 "Hg15 mi
8:00 PM77 °FPartly sunny.2 mph65%29.83 "Hg15 mi
7:00 PM79 °FScattered clouds.3 mph65%29.82 "Hg15 mi
6:00 PM82 °FScattered clouds.3 mph51%29.81 "Hg15 mi
5:00 PM82 °FPartly sunny.3 mph55%29.80 "Hg15 mi
4:00 PM82 °FPartly sunny.2 mph58%29.80 "Hg15 mi
3:00 PM81 °FPartly sunny.2 mph62%29.80 "Hg15 mi
2:00 PM79 °FScattered clouds.No wind65%29.80 "Hg15 mi
1:00 PM77 °FSunny.7 mph65%29.81 "Hg10 mi
12:00 PM75 °FScattered clouds.8 mph69%29.81 "Hg8 mi
11:00 AM72 °FSunny.No wind78%29.81 "Hg8 mi
10:00 AM68 °FPartly sunny.7 mph83%29.82 "Hg10 mi
Weather by CustomWeather, © 2015

See weather overviewHow to use our weather pages